GW6118 Weather Reports


Display with metric or nautical units.
time (UTC)temp
F
wind
direction
speed
MPH
gust
MPH
rain 1hr
in
rain 24hr
in
rain mn
in
humidity
%
barometer
mb
20260504081512 42 244 0.0 2.0 0.00 0.00 0.00 69 1013.3
20260504044514 46 173 0.0 0.0 0.00 0.00 0.00 58 1013.1
20260504043021 47 294 0.0 0.0 0.00 0.00 0.00 55 1012.9
20260504041523 48 259 0.0 3.0 0.00 0.00 0.00 52 1012.8
20260504040025 49 248 0.0 3.0 0.00 0.00 0.00 51 1012.7
20260504034526 50 250 1.0 3.0 0.00 0.00 0.00 48 1012.5
20260504033017 50 217 1.0 4.0 0.00 0.00 0.00 48 1012.5
20260504031524 51 208 0.0 9.0 0.00 0.00 0.00 48 1012.5
20260504030023 52 236 1.0 7.0 0.00 0.00 0.00 44 1012.5
20260504024528 53 246 4.0 8.0 0.00 0.00 0.00 42 1012.4
20260504023013 53 212 3.0 7.0 0.00 0.00 0.00 41 1012.6
20260504021519 53 213 5.0 9.0 0.00 0.00 0.00 42 1012.5
20260504020022 53 227 3.0 7.0 0.00 0.00 0.00 42 1012.4
20260504014506 53 254 2.0 4.0 0.00 0.00 0.00 43 1012.4
20260504013017 53 227 2.0 5.0 0.00 0.00 0.00 43 1012.2
20260504011515 53 240 1.0 7.0 0.00 0.00 0.00 43 1012.1
20260504010022 53 232 1.0 4.0 0.00 0.00 0.00 43 1012.1
20260504004529 54 246 3.0 5.0 0.00 0.00 0.00 40 1011.9
20260504003009 54 211 1.0 2.0 0.00 0.00 0.00 40 1011.8
20260504001511 55 204 1.0 5.0 0.00 0.00 0.00 39 1011.6
20260504000046 56 262 3.0 8.0 0.00 0.00 0.00 38 1011.5
20260503234522 56 215 2.0 7.0 0.00 0.00 0.00 38 1011.4
20260503233023 57 240 2.0 11.0 0.00 0.00 0.00 36 1011.2
20260503231509 58 236 3.0 9.0 0.00 0.00 0.00 35 1011.1
20260503230015 58 291 5.0 13.0 0.00 0.00 0.00 34 1011.1
20260503224519 58 256 4.0 12.0 0.00 0.00 0.00 34 1011.0
20260503223028 58 254 4.0 9.0 0.00 0.00 0.00 34 1010.9
20260503221508 59 250 5.0 16.0 0.00 0.00 0.00 33 1011.0
20260503220015 59 245 6.0 13.0 0.00 0.00 0.00 33 1010.9
20260503214519 60 260 3.0 10.0 0.00 0.00 0.00 31 1010.8
20260503213023 60 223 5.0 13.0 0.00 0.00 0.00 30 1010.8
20260503211523 60 80 3.0 11.0 0.00 0.00 0.00 31 1010.6
20260503210010 60 15 4.0 11.0 0.00 0.00 0.00 30 1010.7
20260503204519 60 215 4.0 14.0 0.00 0.00 0.00 31 1010.8
20260503203029 59 360 3.0 12.0 0.00 0.00 0.00 32 1010.9
20260503201527 58 284 7.0 14.0 0.00 0.00 0.00 31 1011.1
20260503200027 57 211 4.0 16.0 0.00 0.00 0.00 35 1011.4
20260503194514 56 348 2.0 12.0 0.00 0.00 0.00 34 1011.6
20260503193019 57 40 2.0 10.0 0.00 0.00 0.00 35 1011.7
20260503191524 57 240 9.0 18.0 0.00 0.00 0.00 33 1011.9
20260503190025 56 46 2.0 12.0 0.00 0.00 0.00 34 1011.8
20260503184512 56 5 3.0 14.0 0.00 0.00 0.00 38 1012.0
20260503183018 55 333 7.0 19.0 0.00 0.00 0.00 35 1012.1
20260503181523 55 247 4.0 16.0 0.00 0.00 0.00 37 1012.0
20260503180030 55 217 6.0 28.0 0.00 0.00 0.00 37 1012.1
20260503174526 54 69 6.0 12.0 0.00 0.00 0.00 36 1012.2
20260503173025 53 233 4.0 12.0 0.00 0.00 0.00 38 1012.3
20260503171525 54 265 4.0 11.0 0.00 0.00 0.00 39 1012.3